Powrót do katalogu

ATLAS 41E DEB

AktywnyLEO
NORAD 15614·DEBRIS·🇺🇸 United States

Wystrzelony Mar 13, 1985 z Vandenberg Space Force Base

Loading…

Następne Przeloty (najbliższe 24 godziny)

TLE

ŚwieżeSource: Space-Track

Epoka: Sep 14, 2026, 03:48 UTC

1 15614U 85021D   26257.15843834  .00001024  00000-0  16331-3 0  9995
2 15614 108.2210 338.2140 0010123 124.1643 236.0479 14.78851471209831

Śledź ATLAS 41E DEB w czasie rzeczywistym z AllMySat

Download on the App Store